Regional Weather Roundup
Issued by NWS San Angelo, TX

Home | Current Version | Previous Version | Text Only | Print | Product List | Glossary On
Versions: 1 2 3 4 5 6 7 8 9 10 11 12 13 14 15 16 17 18 19 20 21 22 23 24 25 26 27 28 29 30 31 32 33 34 35 36 37 38 39 40 41 42 43 44 45 46 47 48 49 50
000
ASUS44 KSJT 251902
RWRSJT
WEST CENTRAL TEXAS REGIONAL WEATHER ROUNDUP
NATIONAL WEATHER SERVICE SAN ANGELO TX
200 PM CDT TUE APR 25 2017

NOTE: "FAIR" INDICATES FEW OR NO CLOUDS BELOW 12,000 FEET WITH NO
SIGNIFICANT WEATHER AND/OR OBSTRUCTIONS TO VISIBILITY.

TXZ049-054-064>066-071>073-076>078-098-099-113-114-127-128-139-140-
154-155-168>170-252000
...LOCATIONS ACROSS WEST CENTRAL TEXAS...

CITY           SKY/WX    TMP DP  RH WIND       PRES   REMARKS
SAN ANGELO     CLOUDY    92  44  19 SW18G26   29.52F
ABILENE        CLOUDY    92  42  17 W20G30    29.49F
DYESS AFB      NOT AVBL
JUNCTION       SUNNY     92  52  25 SW13G21   29.56F
SWEETWATER     CLOUDY    91  32  12 SW20G35   29.53F
BROWNWOOD      NOT AVBL
COLEMAN        CLEAR     91  50  24 SW14G21   29.52F
SONORA         MOSUNNY   86  46  25 W13G18    29.63F
OZONA            N/A     86  41  20 S16       29.61F
BRADY          NOT AVBL
$$

TEXAS PANHANDLE/OKLAHOMA PANHANDLE

CITY           SKY/WX    TMP DP  RH WIND       PRES   REMARKS
AMARILLO       CLOUDY    66  43  43 NE7       29.51F
BORGER         CLOUDY    63  50  62 NE10      29.49F
CANADIAN       CLOUDY    65  54  68 N14       29.47F
DALHART        CLOUDY    57  46  66 N17       29.55F
DUMAS          CLOUDY    61  47  60 N15G23    29.52F
GUYMON         NOT AVBL
HEREFORD       CLOUDY    74  36  24 W23G37    29.53S
PAMPA          CLOUDY    63  50  63 N14       29.53R
PERRYTON       CLOUDY    61  49  66 N16       29.50F
$$

SOUTHERN PANHANDLE/SOUTH PLAINS/ROLLING PLAINS

CITY           SKY/WX    TMP DP  RH WIND       PRES   REMARKS
LUBBOCK        CLOUDY    82  26  13 W16G26    29.50F
SNYDER         PTSUNNY  N/A N/A N/A SW20G35   29.51F
CHILDRESS      PTSUNNY   83  42  23 NW8       29.45S
SEMINOLE       MOCLDY    82  31  15 W26G36    29.57F
$$

PERMIAN BASIN

CITY           SKY/WX    TMP DP  RH WIND       PRES   REMARKS
MIDLAND        CLOUDY    87  29  12 W20G29    29.56F
ODESSA         CLOUDY    86  27  11 W21G36    29.57F
WINK           MOSUNNY   88  22   9 SW18G31   29.53F
$$

FAR WEST/SOUTHWEST MOUNTAINS/TRANS PECOS

CITY           SKY/WX    TMP DP  RH WIND       PRES   REMARKS
ALPINE         PTCLDY    87  16   7 SW25G33   29.75F
DRYDEN           N/A     91  21   8 SW18G26   29.58F
EL PASO        MOSUNNY   81  21  11 W32G43    29.65F
FORT STOCKTON  CLOUDY    93  21   7 SW25G32   29.59F
GUADALUPE PASS MOSUNNY   77  24  14 SW54G70   29.64R
MARFA          NOT AVBL
PECOS          CLOUDY    92  23   8 W26G40    29.54F
$$

DALLAS/FORT WORTH METROPLEX

CITY           SKY/WX    TMP DP  RH WIND       PRES   REMARKS
DFW AIRPORT    PTSUNNY   80  65  59 S22G31    29.48F
FTW MEACHAM    PTSUNNY   87  67  51 S20G26    29.48F
DAL-EXECUTIVE  MOSUNNY   80  66  62 S13G29    29.51F
GRAND PRAIRIE  SUNNY     79  63  57 S14G28    29.53S
ADDISON        MOSUNNY   82  64  54 S20G31    29.51F
MESQUITE       MOCLDY    79  66  65 S17G28    29.54F
LANCASTER      MOCLDY    79  65  64 S18G28    29.54F
$$

NORTH CENTRAL TEXAS

CITY           SKY/WX    TMP DP  RH WIND       PRES   REMARKS
SHRMAN/DENISON CLOUDY    80  65  61 S20       29.49F
GAINESVILLE    CLOUDY    82  63  53 S18G28    29.48F
BRIDGEPORT     PTCLDY    86  60  40 S13G23    29.47F
DENTON         MOSUNNY   83  66  56 S24       29.48F
WAXAHACHIE     PTCLDY    80  67  64 S20G36    29.54F
GRANBURY       PTCLDY    88  62  41 S15       29.50F
$$

WESTERN NORTH TEXAS

CITY           SKY/WX    TMP DP  RH WIND       PRES   REMARKS
WICHITA FALLS  CLOUDY    90  47  22 SW14      29.39F
VERNON         CLOUDY    91  33  12 SW12G20   29.41F
BRECKENRIDGE   CLOUDY    91  52  26 SW17      29.46S HAZE
COMANCHE       CLOUDY    87  62  41 S12G22    29.52F
$$

CENTRAL AND SOUTH CENTRAL TEXAS

CITY           SKY/WX    TMP DP  RH WIND       PRES   REMARKS
AUSTIN/BERGSTM PTSUNNY   85  69  58 S17G23    29.58F
WACO           MOSUNNY   80  67  64 S25G33    29.56F
HILLSBORO      PTCLDY    80  68  66 S21G30    29.55F
TEMPLE         CLOUDY    79  68  69 S21G30    29.57F
KILLEEN-GRAY   CLOUDY    81  66  59 SE21      29.55F
FORT HOOD      SUNNY     80  66  61 S18       29.53F
GEORGETOWN     PTSUNNY   81  64  57 S18G26    29.58F
LAGO VISTA     FAIR      82  65  57 S14G26    29.60F
SAN MARCOS     PTSUNNY   82  70  65 S14       29.60F
NEW BRAUNFELS  PTSUNNY   86  69  56 S16G23    29.58F
RANDOLPH AFB   MOSUNNY   85  69  59 S10G18    29.58F
SAN ANTONIO    PTSUNNY   81  67  62 S12       29.60F
STINSON        MOSUNNY   88  69  53 S8        29.56F
PLEASANTON     NOT AVBL
LA GRANGE      PTSUNNY   84  72  67 S16       29.58F
GIDDINGS       MOCLDY    82  67  61 S15       29.61F
$$

EAST TEXAS

CITY           SKY/WX    TMP DP  RH WIND       PRES   REMARKS
PARIS          MOSUNNY   79  64  61 S22G30    29.55F
CLARKSVILLE    NOT AVBL
TYLER          PTSUNNY   80  65  59 S17G29    29.58F
LONGVIEW       MOSUNNY   81  66  60 S20G25    29.59F
PALESTINE      MOCLDY    79  67  67 S15G25    29.62F
NACOGDOCHES    PTSUNNY   79  64  61 S15G21    29.63F
$$

TEXAS HILL COUNTRY AND EDWARDS PLATEAU

CITY           SKY/WX    TMP DP  RH WIND       PRES   REMARKS
LLANO          NOT AVBL
HORSESHOE BAY  FAIR      83  65  54 S10G18    29.58F
KERRVILLE      CLOUDY    76  69  76 S6        29.62F
FREDERICKSBRG  NOT AVBL
ROCKSPRINGS    NOT AVBL
HONDO          SUNNY     83  68  60 S6G17     29.59F
UVALDE         CLEAR     80  67  63 CALM      29.60F
DEL RIO        CLOUDY    85  63  47 SE10      29.55F
$$

SOUTHEAST TEXAS

CITY           SKY/WX    TMP DP  RH WIND       PRES   REMARKS
COLLEGE STN    PTSUNNY   83  68  60 S18G25    29.61F
CALDWELL       NOT AVBL
CROCKETT       PTCLDY    81  66  61 S17G23    29.66F
BRENHAM        PTSUNNY   84  69  60 S15G28    29.62F
HUNTSVILLE     PTSUNNY   82  65  56 S13G21    29.64F
CONROE         CLOUDY    83  67  58 S16       29.65F
HOUSTON BUSH   PTSUNNY   83  67  58 S10G20    29.66F
HOUSTON HOBBY  PTSUNNY   81  68  64 S14G24    29.66F
PERLAND        CLOUDY    83  68  60 S15G23    29.68F
WHARTON        MOCLDY    82  66  58 S20G25    29.65F
$$

THE UPPER TEXAS COAST

CITY           SKY/WX    TMP DP  RH WIND       PRES   REMARKS
ORANGE         CLOUDY    78  66  68 S14G20    29.74F
PORT ARTHUR    CLOUDY    78  65  63 S16G23    29.71F
GALVESTON      CLOUDY    81  72  74 S18       29.70F
ANGLETON       CLOUDY    82  71  69 S21       29.67F
BAY CITY       CLOUDY    81  70  69 S16G23    29.67F
$$

TEXAS COASTAL BEND, RIO GRANDE PLAINS DEEP SOUTH TEXAS

CITY           SKY/WX    TMP DP  RH WIND       PRES   REMARKS
VICTORIA       CLOUDY    85  69  58 S18G24    29.62F
BEEVILLE       FAIR      88  73  60 S14       29.59F
ROCKPORT       MOSUNNY   85  71  63 SE18G25   29.61F
PORT ARANSAS   CLEAR     82  72  71 S18G24    29.61F
PORT LAVACA    CLOUDY    82  73  74 S18G26    29.63F
CORPUS CHRISTI PTSUNNY   87  73  62 SE28      29.58F
KINGSVILLE NAS MOSUNNY   94  72  48 SE20      29.56F
COTULLA        SUNNY     91  62  37 CALM      29.55F
LAREDO         SUNNY     91  64  40 S6        29.56F
BROWNSVILLE    MOSUNNY   90  72  55 S26G37    29.62F
PORT ISABEL    CLOUDY    90  72  55 S23G35    29.60F HAZE
HEBBRONVILLE   CLEAR     88  65  46 S6        29.59F
MCALLEN        SUNNY     96  71  44 SE20      29.58F
WESLACO        NOT AVBL
FALFURRIAS     CLEAR     93  66  40 S8G18     29.56F
EDINBURG       CLEAR     96  67  38 S14       29.58F
$$




USA.gov is the U.S. government's official web portal to all federal, state and local government web resources and services.